[[{"header":{"parameterUnit":"m.s-1","parameterCategory":1,"la1":30.2991,"la2":30.254,"lo1":-89.0895,"lo2":-89.0444,"dy":0.0017,"dx":0.0017,"nx":28,"ny":28,"refTime":"2025-09-02T21:00:00:Z","depth":0,"parameterNumber":2,"parameterNumberName":"U-component_of_WINDS"},"data":[0,0,0,0,0,0,0,0,0,0,0,0,0,0,0,0,0,0,0,0,0,0,0,0,0,0,0,0,0,0,0,0,0,0,0,0,0,0,0,0,0,0,0,0,0,0,0,0,0,0,0,0,0,0,0,0,0,0,-0.7441,-0.7442,0,-0.7525,-0.7526,-0.7527,-0.7534,-0.7533,-0.7533,-0.7532,-0.7619,-0.7622,-0.7626,0,0,0,0,0,0,0,0,0,0,0,0,0,-0.7287,-0.729,-0.7441,-0.7442,-0.7443,-0.7525,-0.7526,-0.7527,-0.7535,-0.7533,-0.7532,-0.7531,-0.7618,-0.7622,-0.7626,0,0,0,0,0,0,0,0,0,0,0,0,0,-0.7361,-0.7291,-0.744,-0.7456,-0.7458,-0.7525,-0.7526,-0.7528,-0.7535,-0.7533,-0.7532,-0.7531,-0.7617,-0.7622,-0.7626,-0.7683,0,0,-0.7641,-0.7643,0,0,0,0,0,0,0,0,-0.7357,-0.7367,-0.7453,-0.7455,-0.7458,-0.7518,-0.7504,-0.758,-0.7535,-0.7506,-0.7532,-0.753,-0.7587,-0.7594,-0.7613,-0.7687,-0.7691,-0.7641,-0.7644,-0.7646,-0.7648,0,0,0,0,0,0,0,-0.7352,-0.7363,-0.7474,-0.7454,-0.7457,-0.746,-0.7469,-0.7519,-0.7553,-0.7508,-0.7509,-0.7519,-0.7588,-0.7608,-0.7615,-0.7692,-0.7641,-0.7646,-0.7648,-0.765,-0.7818,-0.782,0,0,0,0,0,0,-0.7343,-0.7359,-0.7471,-0.7477,-0.7403,-0.7463,-0.7473,-0.75,-0.7552,-0.7559,-0.752,-0.7519,-0.7601,-0.7609,-0.7618,-0.7689,-0.7646,-0.7651,-0.7654,-0.7817,-0.7818,-0.782,0,0,0,0,0,0,-0.734,-0.7353,-0.7468,-0.7418,-0.7433,-0.7468,-0.7497,-0.7502,-0.7523,-0.7561,-0.7567,-0.7534,-0.76,-0.7611,-0.7667,-0.7692,-0.7653,-0.7657,-0.7815,-0.7817,-0.7819,-0.7829,0,0,0,0,0,0,-0.7335,-0.7352,-0.7374,-0.7418,-0.7435,-0.7515,-0.7499,-0.7505,-0.7531,-0.753,-0.7576,-0.7583,-0.76,-0.766,-0.7672,-0.7697,-0.7661,-0.7813,-0.7816,-0.7819,-0.7827,-0.7832,-0.7836,0,0,0,0,0,-0.733,-0.7373,-0.7375,-0.7388,-0.7463,-0.7517,-0.7526,-0.7545,-0.7533,-0.7555,-0.758,-0.7581,-0.7687,-0.7665,-0.7679,-0.7706,-0.7811,-0.7815,-0.7818,-0.7825,-0.7831,-0.7836,0,0,0,0,0,0,-0.7331,-0.7379,-0.7382,-0.744,-0.7474,-0.7518,-0.7546,-0.755,-0.7589,-0.7587,-0.7608,-0.7619,-0.7674,-0.7696,-0.7671,-0.7764,-0.7748,-0.7754,-0.7748,-0.7754,-0.7758,-0.7752,-0.7665,0,0,0,0,0,-0.7338,-0.7377,-0.7417,-0.7465,-0.7482,-0.7511,-0.7535,-0.7547,-0.7583,-0.7597,-0.7626,-0.7662,-0.7703,-0.773,-0.777,-0.783,-0.7841,-0.7856,-0.786,-0.7863,-0.7869,-0.7903,-0.7911,-0.7832,-0.7832,-0.7832,0,0,-0.7353,-0.7384,-0.7408,-0.7466,-0.7494,-0.7535,-0.7523,-0.7567,-0.7597,-0.7604,-0.7659,-0.7681,-0.7722,-0.778,-0.7807,-0.78,-0.7893,-0.7868,-0.7871,-0.7874,-0.7908,-0.7915,-0.7922,-0.7834,-0.7834,-0.7834,0,0,-0.7401,-0.7428,-0.7472,-0.75,-0.7541,-0.756,-0.7571,-0.7614,-0.7629,-0.7684,-0.769,-0.7726,-0.7797,-0.7826,-0.785,-0.7909,-0.7912,-0.7921,-0.7945,-0.7978,-0.7984,-0.799,-0.8012,-0.802,-0.7927,-0.7927,-0.7927,0,-0.7415,-0.7476,-0.7494,-0.7537,-0.7563,-0.757,-0.7615,-0.7641,-0.7694,-0.7712,-0.7703,-0.7792,-0.782,-0.7885,-0.79,-0.7919,-0.7932,-0.7917,-0.7982,-0.7988,-0.7993,-0.8015,-0.8023,-0.7928,-0.7928,-0.7928,-0.7927,0,-0.7491,-0.7533,-0.7563,-0.7614,-0.7643,-0.7687,-0.7712,-0.7739,-0.7748,-0.7768,-0.7824,-0.7858,-0.7905,-0.7921,-0.793,-0.7988,-0.7983,-0.7977,-0.7961,-0.8002,-0.8022,-0.803,-0.7929,-0.7929,-0.7928,-0.7928,0,0,-0.7543,-0.7603,-0.7613,-0.7637,-0.7683,-0.7716,-0.776,-0.7806,-0.783,-0.7866,-0.7904,-0.7963,-0.7959,-0.7986,-0.7998,-0.8027,-0.8073,-0.8019,-0.802,-0.8028,-0.814,-0.8144,-0.8153,-0.8075,-0.8076,-0.8078,-0.8137,0,-0.7597,-0.7676,-0.7693,-0.7761,-0.78,-0.7808,-0.7846,-0.7879,-0.7899,-0.7936,-0.7958,-0.8,-0.7991,-0.8007,-0.8036,-0.8061,-0.8096,-0.8057,-0.8111,-0.8113,-0.8102,-0.8164,-0.8168,-0.8223,-0.8145,-0.8146,-0.8147,0,-0.7671,-0.7709,-0.778,-0.7822,-0.7839,-0.7873,-0.7917,-0.7952,-0.799,-0.8002,-0.8032,-0.8042,-0.8088,-0.8069,-0.8134,-0.8107,-0.813,-0.8146,-0.8149,-0.8155,-0.8133,-0.8173,-0.824,-0.8249,-0.816,-0.8159,-0.8158,0,-0.7703,-0.7771,-0.7823,-0.7843,-0.7892,-0.7916,-0.7938,-0.7974,-0.8001,-0.8039,-0.8057,-0.81,-0.8124,-0.8157,-0.8178,-0.8162,-0.8241,-0.8224,-0.8254,-0.8253,-0.8271,-0.827,-0.8344,-0.8284,-0.8284,-0.8284,-0.8284,0,-0.7762,-0.7806,-0.7838,-0.787,-0.792,-0.7939,-0.7988,-0.8009,-0.8042,-0.8078,-0.8087,-0.8122,-0.8147,-0.8185,-0.8201,-0.8253,-0.8263,-0.8275,-0.8279,-0.8275,-0.8274,-0.8291,-0.8288,-0.8286,-0.8286,-0.8285,-0.8285,0,-0.7807,-0.783,-0.7887,-0.7929,-0.7941,-0.7975,-0.8012,-0.8043,-0.8063,-0.8109,-0.8121,-0.8153,-0.8198,-0.8222,-0.8278,-0.8289,-0.8348,-0.8349,-0.8335,-0.8337,-0.8366,-0.8363,-0.8455,-0.8468,-0.8398,-0.8399,-0.84,0,-0.7843,-0.7877,-0.7923,-0.7948,-0.797,-0.801,-0.8037,-0.8058,-0.8086,-0.8131,-0.8158,-0.8203,-0.8241,-0.8313,-0.8341,-0.8384,-0.8387,-0.8416,-0.8394,-0.8389,-0.8389,-0.8387,-0.8391,-0.8421,-0.8421,-0.8422,-0.8422,0,-0.7907,-0.7916,-0.7955,-0.7997,-0.8029,-0.8064,-0.8098,-0.8118,-0.8144,-0.8175,-0.8221,-0.825,-0.8308,-0.8353,-0.8399,-0.8422,-0.8427,-0.8429,-0.8438,-0.8435,-0.8425,-0.8432,-0.8347,-0.8427,-0.8426,-0.8426,-0.8426,-0.8426,-0.7949,-0.798,-0.8017,-0.8059,-0.8087,-0.8119,-0.8151,-0.8174,-0.8213,-0.8261,-0.8271,-0.832,-0.8357,-0.8418,-0.8443,-0.8482,-0.8476,-0.8489,-0.8493,-0.8496,-0.8498,-0.8418,-0.849,-0.849,-0.849,-0.8489,-0.8489,0,-0.8014,-0.8038,-0.8076,-0.8124,-0.8157,-0.8158,-0.8196,-0.8224,-0.8267,-0.8301,-0.8338,-0.8391,-0.8435,-0.8466,-0.8511,-0.8536,-0.854,-0.8548,-0.8547,-0.8552,-0.85,-0.8488,-0.8544,-0.8544,-0.8544,-0.8544,-0.8544,-0.8544,-0.8051,-0.8103,-0.8117,-0.8183,-0.8207,-0.8255,-0.8276,-0.8306,-0.8333,-0.8392,-0.8428,-0.8448,-0.8481,-0.8529,-0.8569,-0.8577,-0.8594,-0.8602,-0.861,-0.8561,-0.8555,-0.855,-0.8539,-0.8605,-0.8605,-0.8659,-0.866,-0.866]},{"header":{"parameterUnit":"m.s-1","parameterCategory":1,"la1":30.2991,"la2":30.254,"lo1":-89.0895,"lo2":-89.0444,"dy":0.0017,"dx":0.0017,"nx":28,"ny":28,"refTime":"2025-09-02T21:00:00:Z","depth":0,"parameterNumber":3,"parameterNumberName":"V-component_of_WINDS"},"data":[0,0,0,0,0,0,0,0,0,0,0,0,0,0,0,0,0,0,0,0,0,0,0,0,0,0,0,0,0,0,0,0,0,0,0,0,0,0,0,0,0,0,0,0,0,0,0,0,0,0,0,0,0,0,0,0,0,0,-1.7985,-1.7986,0,-1.8083,-1.8084,-1.8085,-1.812,-1.812,-1.8119,-1.8119,-1.8219,-1.8222,-1.8225,0,0,0,0,0,0,0,0,0,0,0,0,0,-1.7828,-1.7831,-1.7985,-1.7986,-1.7988,-1.8083,-1.8084,-1.8086,-1.812,-1.812,-1.8119,-1.8119,-1.8218,-1.8222,-1.8225,0,0,0,0,0,0,0,0,0,0,0,0,0,-1.7908,-1.7832,-1.7985,-1.8016,-1.802,-1.8083,-1.8084,-1.8086,-1.812,-1.812,-1.8119,-1.8119,-1.8217,-1.8221,-1.8226,-1.8264,0,0,-1.8239,-1.8241,0,0,0,0,0,0,0,0,-1.7904,-1.7914,-1.801,-1.8014,-1.8019,-1.8089,-1.8066,-1.8146,-1.812,-1.8082,-1.8119,-1.8119,-1.8176,-1.8184,-1.8204,-1.8269,-1.8273,-1.824,-1.8243,-1.8244,-1.8246,0,0,0,0,0,0,0,-1.7898,-1.791,-1.8024,-1.8012,-1.8017,-1.8026,-1.8036,-1.8081,-1.8131,-1.8086,-1.8088,-1.8099,-1.8178,-1.8199,-1.8206,-1.8274,-1.824,-1.8244,-1.8246,-1.8248,-1.8377,-1.8377,0,0,0,0,0,0,-1.7887,-1.7905,-1.8021,-1.8027,-1.7959,-1.8029,-1.8041,-1.8067,-1.8131,-1.814,-1.81,-1.8101,-1.8192,-1.8201,-1.821,-1.8259,-1.8244,-1.8249,-1.8251,-1.8376,-1.8377,-1.8377,0,0,0,0,0,0,-1.7884,-1.7897,-1.8017,-1.7967,-1.7983,-1.8032,-1.8061,-1.8069,-1.809,-1.8141,-1.815,-1.8112,-1.8192,-1.8203,-1.825,-1.8263,-1.8251,-1.8255,-1.8375,-1.8376,-1.8377,-1.8357,0,0,0,0,0,0,-1.7879,-1.7896,-1.7911,-1.7967,-1.7985,-1.8056,-1.8062,-1.8071,-1.8098,-1.81,-1.8155,-1.8164,-1.8192,-1.8244,-1.8255,-1.8269,-1.8258,-1.8374,-1.8375,-1.8377,-1.8357,-1.8357,-1.8358,0,0,0,0,0,-1.7873,-1.7901,-1.7911,-1.7925,-1.8005,-1.8056,-1.8067,-1.8099,-1.8098,-1.8114,-1.8147,-1.8162,-1.826,-1.8248,-1.8261,-1.8276,-1.8373,-1.8375,-1.8377,-1.8357,-1.8357,-1.8358,0,0,0,0,0,0,-1.7845,-1.7909,-1.7921,-1.7968,-1.8006,-1.8062,-1.8082,-1.8099,-1.8138,-1.8138,-1.8177,-1.8189,-1.8233,-1.826,-1.8245,-1.8317,-1.8318,-1.8322,-1.8298,-1.8299,-1.8299,-1.8291,-1.8262,0,0,0,0,0,-1.7844,-1.788,-1.7934,-1.797,-1.7989,-1.8032,-1.8056,-1.8078,-1.8119,-1.8135,-1.8172,-1.8212,-1.8252,-1.8277,-1.8316,-1.8361,-1.8374,-1.8378,-1.8379,-1.8379,-1.8382,-1.8408,-1.841,-1.8383,-1.8383,-1.8383,0,0,-1.7842,-1.7882,-1.7903,-1.7966,-1.7998,-1.8035,-1.8046,-1.8084,-1.8112,-1.8141,-1.8188,-1.8216,-1.8263,-1.8309,-1.8331,-1.8333,-1.8393,-1.8381,-1.8381,-1.8384,-1.841,-1.8412,-1.8414,-1.8384,-1.8384,-1.8383,0,0,-1.7858,-1.7892,-1.7926,-1.7958,-1.8007,-1.8036,-1.8044,-1.8098,-1.8118,-1.8165,-1.8188,-1.8222,-1.8289,-1.8322,-1.8347,-1.8376,-1.8391,-1.8388,-1.839,-1.8415,-1.8417,-1.8419,-1.8429,-1.8432,-1.8391,-1.8391,-1.8391,0,-1.785,-1.7906,-1.7941,-1.7978,-1.8005,-1.8034,-1.8068,-1.8098,-1.8158,-1.8176,-1.8177,-1.8263,-1.8296,-1.835,-1.8357,-1.8377,-1.8388,-1.8381,-1.8414,-1.8417,-1.8419,-1.8429,-1.8433,-1.839,-1.839,-1.8391,-1.8391,0,-1.7894,-1.7933,-1.7954,-1.8011,-1.804,-1.8076,-1.8116,-1.8142,-1.8161,-1.819,-1.8238,-1.8279,-1.8328,-1.8342,-1.8361,-1.8399,-1.8399,-1.8407,-1.8407,-1.842,-1.843,-1.8434,-1.8389,-1.839,-1.839,-1.839,0,0,-1.7893,-1.7969,-1.7976,-1.8003,-1.8059,-1.809,-1.8127,-1.8175,-1.8196,-1.8237,-1.8268,-1.8326,-1.8333,-1.8362,-1.8385,-1.8407,-1.8427,-1.8412,-1.8414,-1.8413,-1.8471,-1.8465,-1.8469,-1.8438,-1.8439,-1.844,-1.8467,0,-1.7916,-1.7984,-1.8016,-1.8069,-1.8105,-1.8134,-1.8166,-1.8205,-1.8233,-1.8268,-1.8299,-1.8338,-1.8346,-1.8363,-1.8386,-1.842,-1.8439,-1.8418,-1.8468,-1.8469,-1.8454,-1.8474,-1.8467,-1.8491,-1.8472,-1.8472,-1.8473,0,-1.7952,-1.7992,-1.8048,-1.8101,-1.8118,-1.8146,-1.8193,-1.8226,-1.827,-1.8289,-1.8321,-1.8344,-1.8385,-1.8383,-1.844,-1.8425,-1.8447,-1.8467,-1.8469,-1.8474,-1.8471,-1.8479,-1.85,-1.8503,-1.8479,-1.8479,-1.8478,0,-1.7945,-1.8013,-1.8056,-1.8078,-1.8141,-1.816,-1.8187,-1.8231,-1.8258,-1.8298,-1.8316,-1.8361,-1.8385,-1.842,-1.8454,-1.845,-1.8507,-1.8508,-1.8523,-1.8522,-1.8533,-1.8532,-1.8557,-1.8549,-1.8549,-1.8549,-1.8549,0,-1.7967,-1.8,-1.8054,-1.808,-1.8119,-1.8156,-1.8193,-1.8223,-1.8262,-1.8294,-1.8322,-1.8352,-1.8396,-1.8431,-1.8459,-1.8501,-1.8512,-1.8528,-1.8535,-1.8525,-1.8523,-1.854,-1.8539,-1.855,-1.8549,-1.8549,-1.8549,0,-1.7965,-1.8003,-1.8051,-1.8107,-1.8122,-1.8148,-1.8195,-1.8222,-1.8252,-1.8293,-1.8305,-1.8351,-1.8395,-1.8433,-1.849,-1.8508,-1.8552,-1.856,-1.8536,-1.854,-1.8553,-1.8551,-1.8589,-1.8595,-1.8583,-1.8583,-1.8583,0,-1.7976,-1.8003,-1.8061,-1.8085,-1.8112,-1.815,-1.8177,-1.8215,-1.8243,-1.8295,-1.8316,-1.8361,-1.8399,-1.8468,-1.8507,-1.8551,-1.856,-1.8571,-1.8567,-1.8557,-1.856,-1.8558,-1.856,-1.857,-1.857,-1.857,-1.857,0,-1.7991,-1.8009,-1.8047,-1.8092,-1.8124,-1.8162,-1.82,-1.8218,-1.8263,-1.8293,-1.8337,-1.8367,-1.8426,-1.8471,-1.8519,-1.8547,-1.8566,-1.8571,-1.8577,-1.8567,-1.8552,-1.856,-1.8536,-1.857,-1.857,-1.857,-1.857,-1.857,-1.7996,-1.8021,-1.8066,-1.8108,-1.8141,-1.8176,-1.8204,-1.8237,-1.8275,-1.8326,-1.8347,-1.8392,-1.8437,-1.8504,-1.8532,-1.8568,-1.8572,-1.858,-1.8582,-1.8583,-1.8581,-1.8547,-1.8578,-1.8578,-1.8578,-1.8578,-1.8578,0,-1.8013,-1.8043,-1.8081,-1.8134,-1.8167,-1.8182,-1.8226,-1.8252,-1.8292,-1.8332,-1.8369,-1.8421,-1.8464,-1.8507,-1.8553,-1.8574,-1.8584,-1.8585,-1.8584,-1.859,-1.8576,-1.8566,-1.8576,-1.8576,-1.8576,-1.8576,-1.8576,-1.8576,-1.8025,-1.8068,-1.8091,-1.815,-1.8181,-1.8225,-1.8249,-1.8281,-1.8313,-1.837,-1.8406,-1.8434,-1.8475,-1.8525,-1.8566,-1.8577,-1.8593,-1.8591,-1.8605,-1.8591,-1.8591,-1.859,-1.8581,-1.8594,-1.8594,-1.8615,-1.8616,-1.8616]}]]